sat.trackr.live / text

‹ back to catalog

STARLINK-33933

NORAD 63784 · 2025-091K

PAYLOAD ACTIVE UNKNOWN

§ Identity

Operator
Country
US
Launch date
2025-05-02
Launch site
AFETR
Launch vehicle
Mass (kg)
RCS (m²)

Purposes: comms

External: N2YO · Heavens-Above · Gunter

§ Orbital elements

Epoch: 2026-09-20T14:48:41.135328Z

Period
94.27 min
Inclination
43.0019°
Eccentricity
0.0001280
Mean motion
15.27606242 rev/d
Perigee alt
482.1 km
Apogee alt
483.8 km
Semi-major
6,861.1 km
B*
4.9370e-4
RAAN
24.7412°
Arg perigee
262.1354°
Mean anomaly
97.9352°
Rev number
7,890

§ Raw data

STARLINK-339331 63784U 25091K   26263.61714277  .00013359  00000+0  49370-3 0  99952 63784  43.0019  24.7412 0001280 262.1354  97.9352 15.27606242 78905

JSON: /api/v1/satellites/63784 · /tle

For live sub-satellite position, see the globe view (requires WebGL).

§ Visibility from observer

Set your observer location to see the next 7 days of passes ≥ 10°. The values pass through the URL so the page stays shareable.

No JS? Fill the form by hand. The geolocation button needs JavaScript.